Regional Weather Roundup
Issued by NWS

Home | Current Version | Previous Version | Text Only | Print | Product List | Glossary Off
Versions: 1 2 3 4 5 6 7 8 9 10 11 12 13 14 15 16 17 18 19 20 21 22 23 24 25 26 27 28 29 30 31 32 33 34 35 36 37 38 39 40 41 42 43 44 45 46 47 48 49 50

236
ASUS43 KMKX 220621
RWRWI

WISCONSIN REGIONAL WEATHER ROUNDUP
NATIONAL WEATHER SERVICE MILWAUKEE/SULLIVAN WI
100 AM CDT FRI MAY 22 2015

NOTE: "FAIR" INDICATES FEW OR NO CLOUDS BELOW 12,000 FEET WITH NO
SIGNIFICANT WEATHER AND/OR OBSTRUCTIONS TO VISIBILITY.

WIZ001-002-006>008-014>016-023>028-220700-
NORTHWEST WISCONSIN

CITY           SKY/WX    TMP DP  RH WIND       PRES   REMARKS
SUPERIOR ARPT  CLEAR     42  34  72 CALM      30.11R
6HR MIN TEMP:  42; 6HR MAX TEMP:  67;

ASHLAND        CLEAR     39  38  96 W5        30.10R
6HR MIN TEMP:  37; 6HR MAX TEMP:  62;

HAYWARD        CLEAR     40  33  76 CALM      30.10R
6HR MIN TEMP:  40; 6HR MAX TEMP:  67;

SIREN          CLEAR     42  35  76 CALM      30.11R
6HR MIN TEMP:  41; 6HR MAX TEMP:  68;

CUMBERLAND     CLEAR     45  36  70 NW6       30.10R
RICE LAKE      CLEAR     44  40  85 CALM      30.10R
6HR MIN TEMP:  44; 6HR MAX TEMP:  69;

CHETEK         CLEAR     45  40  83 CALM      30.09R
6HR MIN TEMP:  45; 6HR MAX TEMP:  67;

LADYSMITH      CLEAR     43  38  83 CALM      30.10R
6HR MIN TEMP:  42; 6HR MAX TEMP:  65;

EAU CLAIRE     CLEAR     46  38  73 CALM      30.07R
6HR MIN TEMP:  44; 6HR MAX TEMP:  70;

MENOMONIE      CLEAR     53  37  54 CALM      30.09R
6HR MIN TEMP:  51; 6HR MAX TEMP:  71;

NEW RICHMOND   CLEAR     50  36  58 NE3       30.10R
6HR MIN TEMP:  49; 6HR MAX TEMP:  69;

OSCEOLA        CLEAR     44  40  83 CALM      30.13R
6HR MIN TEMP:  44; 6HR MAX TEMP:  69;

$$

WIZ003>005-009-010-017-018-220700-
NORTH CENTRAL WISCONSIN

CITY           SKY/WX    TMP DP  RH WIND       PRES   REMARKS
MANITOWISH WTR CLEAR     34  33  96 CALM      30.08R
6HR MIN TEMP:  34; 6HR MAX TEMP:  59;

ARBOR VITAE    CLEAR     38  34  83 CALM      30.08R
6HR MIN TEMP:  37; 6HR MAX TEMP:  59;

WOODRUFF       CLEAR     38  34  83 CALM      30.08R
6HR MIN TEMP:  37; 6HR MAX TEMP:  59;

RHINELANDER    CLEAR     36  31  82 CALM      30.08R
6HR MIN TEMP:  36; 6HR MAX TEMP:  60;

EAGLE RIVER    CLEAR     40  29  65 E8        30.09R WCI  35
6HR MIN TEMP:  35; 6HR MAX TEMP:  59;

LAND O LAKES   CLEAR     37  30  76 CALM      30.10R
6HR MIN TEMP:  35; 6HR MAX TEMP:  59;

PHILLIPS       CLEAR     37  35  92 CALM      30.09R
6HR MIN TEMP:  37; 6HR MAX TEMP:  62;

TOMAHAWK       CLEAR     32  30  92 CALM      30.09R
6HR MIN TEMP:  32; 6HR MAX TEMP:  61;

MEDFORD        CLEAR     39  35  86 CALM      30.08R
6HR MIN TEMP:  38; 6HR MAX TEMP:  62;

MERRILL        CLEAR     35  33  92 CALM      30.09R
$$

WIZ029-030-035-036-043>047-220700-
CENTRAL WISCONSIN

CITY           SKY/WX    TMP DP  RH WIND       PRES   REMARKS
WAUSAU         CLEAR     43  34  70 CALM      30.07R
6HR MIN TEMP:  43; 6HR MAX TEMP:  66; 6HR PCP: TRACE;

MOSINEE        CLEAR     45  34  65 CALM      30.09R
MARSHFIELD     CLEAR     47  33  58 E3        30.07R
6HR MIN TEMP:  45; 6HR MAX TEMP:  68;

STEVENS POINT  CLEAR     44  36  74 CALM      30.08R
6HR MIN TEMP:  43; 6HR MAX TEMP:  68;

WAUPACA        CLEAR     44  36  74 CALM      30.08R
6HR MIN TEMP:  44; 6HR MAX TEMP:  72;

WAUTOMA        CLEAR     42  37  82 CALM      30.08R
6HR MIN TEMP:  42; 6HR MAX TEMP:  68;

WISC RAPIDS    CLEAR     46  35  65 CALM      30.08R
6HR MIN TEMP:  46; 6HR MAX TEMP:  71;

CAMP DOUGLAS   CLEAR     41  41  99 CALM      30.06R
6HR MIN TEMP:  41; 6HR MAX TEMP:  71;

$$

WIZ011>013-019>022-031-037>040-048>050-220700-
NORTHEAST WISCONSIN

CITY           SKY/WX    TMP DP  RH WIND       PRES   REMARKS
ANTIGO         CLEAR     41  34  74 SE3       30.08R
SHAWANO        CLEAR     43  37  81 CALM      30.09R
6HR MIN TEMP:  41; 6HR MAX TEMP:  60;

OCONTO         CLEAR     36  36 100 CALM      30.09R
6HR MIN TEMP:  35; 6HR MAX TEMP:  56;

STURGEON BAY   CLEAR     39  27  60 CALM      30.11R
6HR MIN TEMP:  41; 6HR MAX TEMP:  55;

GREEN BAY      CLEAR     42  34  73 NE3       30.08R
6HR MIN TEMP:  41; 6HR MAX TEMP:  59; 6HR PCP: TRACE;

MANITOWOC      CLEAR     42  34  73 CALM      30.08S
6HR MIN TEMP:  42; 6HR MAX TEMP:  56; 6HR PCP: TRACE;

APPLETON       CLEAR     45  28  53 E3        30.07S
CLINTONVILLE   CLEAR     39  36  87 CALM      30.09R
OSHKOSH        CLEAR     48  31  51 SE5       30.06S
6HR MIN TEMP:  48; 6HR MAX TEMP:  69;

$$

WIZ032>034-041-042-053>061-220700-
SOUTHWEST WISCONSIN

CITY           SKY/WX    TMP DP  RH WIND       PRES   REMARKS
LA CROSSE      CLEAR     50  44  80 SE3       30.06R
6HR MIN TEMP:  49; 6HR MAX TEMP:  72;

SPARTA         CLEAR     40  39  94 CALM      30.08R
6HR MIN TEMP:  40; 6HR MAX TEMP:  71;

VIROQUA        CLEAR     54  37  53 CALM      30.07R
6HR MIN TEMP:  54; 6HR MAX TEMP:  68;

BOSCOBEL       CLEAR     45  40  82 CALM      30.07R
6HR MIN TEMP:  44; 6HR MAX TEMP:  74;

PRAIRIE DU CHI CLEAR     48  40  74 CALM      30.07R
6HR MIN TEMP:  48; 6HR MAX TEMP:  72;

PLATTEVILLE    CLEAR     55  37  52 NW5       30.05R
6HR MIN TEMP:  55; 6HR MAX TEMP:  70;

$$

WIZ056-057-062-063-064-067-068-220700-
SOUTH CENTRAL WISCONSIN

CITY           SKY/WX    TMP DP  RH WIND       PRES   REMARKS
REEDSBURG      CLEAR     51  38  61 CALM      30.06R
6HR MIN TEMP:  51; 6HR MAX TEMP:  70;

BARABOO/DELLS  CLEAR     50  39  67 NE6       30.07R
6HR MIN TEMP:  50; 6HR MAX TEMP:  69;

LONE ROCK      CLEAR     50  40  68 VRB3      30.06R
6HR MIN TEMP:  48; 6HR MAX TEMP:  72;

MINERAL POINT  CLEAR     54  36  50 NW3       30.06R
MADISON        CLEAR     52  41  66 NE9       30.06R
6HR MIN TEMP:  51; 6HR MAX TEMP:  69;

MIDDLETON      CLEAR     55  40  57 NE9       30.06R
6HR MIN TEMP:  54; 6HR MAX TEMP:  70;

WATERTOWN      PTCLDY    47  35  61 NE8       30.06R
6HR MIN TEMP:  47; 6HR MAX TEMP:  69; 6HR PCP:  0.01;

MONROE         CLEAR     54  41  62 NW8       30.03R
JANESVILLE     CLEAR     54  41  62 NW6       30.01S
$$

WIZ051-052-058>065-066-070>072-220700-
SOUTHEAST WISCONSIN

CITY           SKY/WX    TMP DP  RH WIND       PRES   REMARKS
MILWAUKEE      CLEAR     47  34  60 N9        30.06R
6HR MIN TEMP:  47; 6HR MAX TEMP:  70; 6HR PCP: TRACE;

WAUKESHA       CLEAR     45  34  65 NE6       30.08R
MILWAUKEE/TIMM CLEAR     46  32  57 NE5       30.08R
RACINE         PTCLDY    47  39  74 N12       30.06R
6HR MIN TEMP:  47; 6HR MAX TEMP:  69; 6HR PCP:  0.04;

BURLINGTON     CLEAR     49  40  71 NE8       30.05R
6HR MIN TEMP:  49; 6HR MAX TEMP:  66;

KENOSHA        PTCLDY    49  43  80 N9        30.04R
6HR MIN TEMP:  49; 6HR MAX TEMP:  67; 6HR PCP:  0.02;

FOND DU LAC    CLEAR     46  28  49 E5        30.06F
6HR MIN TEMP:  45; 6HR MAX TEMP:  67; 6HR PCP: TRACE;

SHEBOYGAN      PTCLDY    43  33  68 CALM      30.08R
6HR MIN TEMP:  41; 6HR MAX TEMP:  62; 6HR PCP:  0.06;

WEST BEND      MOCLDY    45  32  61 CALM      30.08R
JUNEAU         CLEAR     47  31  54 E8        30.08R
6HR MIN TEMP:  47; 6HR MAX TEMP:  68;

$$

LSZ147-162-220700-
LAKE SUPERIOR

STATION/POSITION TIME  TEMP    WIND        PRES    WAVE
                       AIR SEA DIR/SP/G            HT/PER
                 (UTC) (F)     (DEG/KT/KT) (MB)    (FT/S)
W MID LAKE BUOY  0550   40 36  110/  6/  6   N/A     0
DEVILS ISLAND    0600   46      50/  9/  9   N/A
PORT WING        0540   44     180/  3/  4   N/A
SAXON HARBOR     0500   41     200/  2/  4   N/A
$$

LMZ867-665-643>646-220700-
LAKE MICHIGAN

STATION/POSITION TIME  TEMP    WIND        PRES    WAVE
                       AIR SEA DIR/SP/G            HT/PER



USA.gov is the U.S. government's official web portal to all federal, state and local government web resources and services.